Location: Boiro
(42.6475°N, 8.8834°W)
Time: 09:14:27
(UTC+02:00)

First-Move - Pass Details

Date: 20 April 2024
Orbit: 538 x 600 km, 97.7° (Epoch: 20 May)

Event Time Altitude Azimuth Distance (km) Brightness Sun altitude
Rises 05:50:37 0° 15° (NNE) 2,863 ? -19.6°
Reaches altitude 10° 05:52:49 10° 19° (NNE) 1,961 ? -19.3°
Maximum altitude 05:57:03 65° 101° (E) 673 ? -18.6°
Enters shadow 05:59:46 21° 179° (S) 1,357 ? -18.2°
